Tacoma, WA

4:35 PM PST on February 18, 2018 (GMT -0800)
McChord Air Force Base

Weather History for KTCM - September, 2014

Change the Weather History Date:

Monday, September 1, 2014

  Actual Average Record
Temperature  
Mean Temperature 61 °F -  
Max Temperature 75 °F 72 °F 91 °F (1987)
Min Temperature 48 °F 49 °F 38 °F (1973)
Degree Days  
Heating Degree Days 4    
Growing Degree Days 11 (Base 50)    
Moisture  
Dew Point 53 °F    
Average Humidity 79    
Maximum Humidity 100    
Minimum Humidity 50    
Precipitation  
Precipitation 0.00 in - - ()
Sea Level Pressure  
Sea Level Pressure 30.07 in    
Wind  
Wind Speed 3 mph (NNW)    
Max Wind Speed 8 mph    
Max Gust Speed -    
Visibility 8 miles    
Events Fog    
Averages and records for this station are not official NWS values.
T = Trace of Precipitation, MM = Missing Value Source: NWS Daily Summary

Daily Weather History Graph

Daily Weather History Graph

Search for Another Location

Airport or City:

Trip Planner

Search our weather history database for the weather conditions in past years. The results will help you decide how hot, cold, wet, or windy it might be!

Date:

Astronomy

Sep. 01, 2014 Rise Set
Actual Time 6:29 AM PDT 7:49 PM PDT
Civil Twilight 5:57 AM PDT 8:21 PM PDT
Nautical Twilight 5:19 AM PDT 8:59 PM PDT
Astronomical Twilight 4:38 AM PDT 9:39 PM PDT
Moon 1:47 PM PDT (9/1) 11:27 PM PDT (9/1)
Length of Visible Light 14h 23m
Length of Day
13h 20m
Waxing Crescent, 43% of the Moon is Illuminated
Sep 1
Waxing Crescent
Sep 2
First Quarter
Sep 8
Full
Sep 15
Last Quarter
Sep 23
New

Hourly Weather History & Observations

Time (PDT) Temp. Dew Point Humidity Pressure Visibility Wind Dir Wind Speed Gust Speed Precip Events Conditions
12:58 AM 55.8 °F 51.8 °F 87% 30.09 in 10.0 mi WNW 4.6 mph - N/A   Overcast
1:58 AM 53.6 °F 51.1 °F 91% 30.09 in 10.0 mi WNW 2.3 mph - N/A   Scattered Clouds
2:58 AM 54.0 °F 52.5 °F 95% 30.08 in 10.0 mi WNW 2.3 mph - N/A   Overcast
3:58 AM 54.0 °F 51.8 °F 92% 30.08 in 10.0 mi NW 1.2 mph - N/A   Mostly Cloudy
4:58 AM 51.8 °F 51.4 °F 99% 30.09 in 10.0 mi WNW 3.5 mph - N/A   Clear
5:58 AM 51.3 °F 50.9 °F 99% 30.09 in 7.0 mi NW 2.3 mph - N/A   Clear
6:33 AM 50.0 °F 48.2 °F 94% 30.09 in 2.5 mi WNW 2.3 mph - N/A   Clear
6:38 AM 48.2 °F 48.2 °F 100% 30.09 in 0.8 mi WNW 3.5 mph - N/A   Clear
6:43 AM 48.2 °F 48.2 °F 100% 30.09 in 0.5 mi WNW 3.5 mph - N/A Fog Fog
6:48 AM 48.2 °F 48.2 °F 100% 30.09 in 0.2 mi NW 3.5 mph - N/A Fog Fog
6:53 AM 50.0 °F 48.2 °F 94% 30.09 in 0.5 mi NW 3.5 mph - N/A Fog Fog
6:58 AM 48.2 °F 48.2 °F 100% 30.10 in 1.0 mi West 1.2 mph - N/A   Clear
7:03 AM 50.0 °F 48.2 °F 94% 30.09 in 7.0 mi Calm Calm - N/A   Clear
7:58 AM 54.0 °F 53.6 °F 99% 30.11 in 10.0 mi Calm Calm - N/A   Clear
8:58 AM 59.4 °F 53.4 °F 81% 30.11 in 10.0 mi Calm Calm - N/A   Scattered Clouds
9:58 AM 64.0 °F 54.3 °F 71% 30.11 in 10.0 mi North 3.5 mph - N/A   Partly Cloudy
10:58 AM 66.7 °F 54.9 °F 66% 30.10 in 10.0 mi Variable 1.2 mph - N/A   Scattered Clouds
11:58 AM 68.4 °F 54.1 °F 60% 30.10 in 10.0 mi Variable 2.3 mph - N/A   Mostly Cloudy
12:58 PM 69.8 °F 54.3 °F 58% 30.08 in 10.0 mi Variable 4.6 mph - N/A   Mostly Cloudy
1:58 PM 72.9 °F 54.9 °F 53% 30.07 in 10.0 mi Variable 2.3 mph - N/A   Mostly Cloudy
2:58 PM 73.4 °F 54.1 °F 51% 30.05 in 10.0 mi NE 5.8 mph - N/A   Overcast
3:58 PM 74.1 °F 54.7 °F 51% 30.04 in 10.0 mi NNE 8.1 mph - N/A   Overcast
4:58 PM 74.8 °F 55.2 °F 50% 30.03 in 10.0 mi NE 5.8 mph - N/A   Scattered Clouds
5:58 PM 74.8 °F 55.0 °F 50% 30.02 in 10.0 mi ENE 8.1 mph - N/A   Clear
6:58 PM 73.0 °F 56.3 °F 56% 30.01 in 10.0 mi East 6.9 mph - N/A   Clear
7:58 PM 69.4 °F 57.4 °F 65% 30.00 in 10.0 mi NE 5.8 mph - N/A   Clear
8:58 PM 66.9 °F 57.7 °F 72% 30.01 in 10.0 mi NE 6.9 mph - N/A   Clear
9:58 PM 65.1 °F 57.4 °F 76% 30.01 in 10.0 mi NNE 3.5 mph - N/A   Clear
10:58 PM 64.2 °F 57.7 °F 79% 30.01 in 10.0 mi NE 4.6 mph - N/A   Overcast
11:58 PM 62.4 °F 58.3 °F 86% 30.01 in 10.0 mi ENE 3.5 mph - N/A   Mostly Cloudy